When you browse on this site, cookies collect data to enhance your experience and personalize the content and advertising you see.
Visit our Privacy Policy to learn more. By continuing to use the site, you agree to this use of cookies and data.
  • In Spain
  • List of Countries
  • For 7 days
  • Water Temperature
  • Satellite Maps
  • Weather Map
  • Weather Widgets
  • user-avatar
    Login

    Hourly Weather Koulikoro

    Today, 21 April, Sunday

    Time Temperature Precipitation Wind Pressure Humidity
    00:00 +38°C° 0 mm 3 mps 728 mmHg 27%
    01:00 +37°C° 0 mm 3 mps 728 mmHg 29%
    02:00 +36°C° 0 mm 3 mps 728 mmHg 32%
    03:00 +36°C° 0.1 mm 3 mps 728 mmHg 35%
    04:00 +35°C° 0.1 mm 4 mps 728 mmHg 38%
    05:00 +34°C° 0.1 mm 4 mps 728 mmHg 42%
    06:00 +35°C° 0 mm 5 mps 728 mmHg 41%
    07:00 +36°C° 0 mm 5 mps 729 mmHg 41%
    08:00 +37°C° 0 mm 5 mps 729 mmHg 41%
    09:00 +39°C° 0 mm 5 mps 729 mmHg 35%
    10:00 +41°C° 0 mm 5 mps 729 mmHg 29%
    11:00 +43°C° 0 mm 5 mps 729 mmHg 23%
    12:00 +44°C° 0 mm 4 mps 728 mmHg 20%
    13:00 +44°C° 0 mm 3 mps 727 mmHg 17%
    14:00 +45°C° 0 mm 3 mps 726 mmHg 14%
    15:00 +45°C° 0 mm 2 mps 726 mmHg 13%
    16:00 +43°C° 0 mm 2 mps 726 mmHg 12%
    17:00 +43°C° 0 mm 2 mps 726 mmHg 11%
    18:00 +42°C° 0 mm 1 mps 726 mmHg 12%
    19:00 +41°C° 0 mm 1 mps 727 mmHg 13%
    20:00 +40°C° 0 mm 1 mps 727 mmHg 15%
    21:00 +39°C° 0 mm 1 mps 727 mmHg 17%
    22:00 +37°C° 0 mm 1 mps 727 mmHg 19%
    23:00 +36°C° 0 mm 1 mps 728 mmHg 21%

    Tomorrow, 22 April, Monday

    Time Temperature Precipitation Wind Pressure Humidity
    00:00 +35°C° 0 mm 1 mps 727 mmHg 22%
    01:00 +34°C° 0 mm 1 mps 727 mmHg 22%
    02:00 +33°C° 0 mm 1 mps 727 mmHg 22%
    03:00 +33°C° 0 mm 1 mps 727 mmHg 21%
    04:00 +32°C° 0 mm 1 mps 727 mmHg 19%
    05:00 +32°C° 0 mm 1 mps 727 mmHg 18%
    06:00 +34°C° 0 mm 1 mps 728 mmHg 16%
    07:00 +37°C° 0 mm 2 mps 728 mmHg 13%
    08:00 +38°C° 0 mm 3 mps 729 mmHg 11%
    09:00 +40°C° 0 mm 3 mps 729 mmHg 10%
    10:00 +42°C° 0 mm 3 mps 729 mmHg 9%
    11:00 +44°C° 0 mm 3 mps 728 mmHg 9%
    12:00 +44°C° 0 mm 3 mps 728 mmHg 8%
    13:00 +45°C° 0 mm 3 mps 727 mmHg 8%
    14:00 +45°C° 0 mm 3 mps 726 mmHg 8%
    15:00 +45°C° 0 mm 3 mps 725 mmHg 8%
    16:00 +44°C° 0 mm 3 mps 725 mmHg 8%
    17:00 +44°C° 0 mm 3 mps 725 mmHg 9%
    18:00 +42°C° 0 mm 3 mps 725 mmHg 10%
    19:00 +40°C° 0 mm 2 mps 726 mmHg 11%
    20:00 +38°C° 0 mm 2 mps 726 mmHg 12%
    21:00 +37°C° 0 mm 2 mps 726 mmHg 12%
    22:00 +37°C° 0 mm 2 mps 726 mmHg 13%
    23:00 +36°C° 0 mm 2 mps 727 mmHg 13%

    Day after tomorrow, 23 April, Tuesday

    Time Temperature Precipitation Wind Pressure Humidity
    00:00 +35°C° 0 mm 2 mps 726 mmHg 14%
    01:00 +35°C° 0 mm 2 mps 726 mmHg 15%
    02:00 +34°C° 0 mm 2 mps 726 mmHg 15%
    03:00 +32°C° 0 mm 2 mps 726 mmHg 16%
    04:00 +32°C° 0 mm 2 mps 726 mmHg 17%
    05:00 +31°C° 0 mm 2 mps 727 mmHg 18%
    06:00 +34°C° 0 mm 2 mps 727 mmHg 17%
    07:00 +36°C° 0 mm 2 mps 728 mmHg 15%
    08:00 +37°C° 0 mm 2 mps 729 mmHg 14%
    09:00 +39°C° 0 mm 2 mps 729 mmHg 12%
    10:00 +40°C° 0 mm 2 mps 729 mmHg 11%
    11:00 +43°C° 0 mm 3 mps 729 mmHg 10%
    12:00 +44°C° 0 mm 3 mps 728 mmHg 10%
    13:00 +43°C° 0 mm 2 mps 727 mmHg 9%
    14:00 +45°C° 0 mm 2 mps 726 mmHg 9%
    15:00 +45°C° 0 mm 2 mps 726 mmHg 9%
    16:00 +43°C° 0 mm 2 mps 725 mmHg 9%
    17:00 +43°C° 0 mm 1 mps 725 mmHg 9%
    18:00 +41°C° 0 mm 1 mps 726 mmHg 10%
    19:00 +40°C° 0 mm 1 mps 726 mmHg 11%
    20:00 +37°C° 0 mm 1 mps 727 mmHg 12%
    21:00 +36°C° 0 mm 1 mps 727 mmHg 13%
    22:00 +36°C° 0 mm 1 mps 727 mmHg 13%
    23:00 +35°C° 0 mm 1 mps 727 mmHg 14%

    24 April, Wednesday

    Time Temperature Precipitation Wind Pressure Humidity
    00:00 +34°C° 0 mm 1 mps 727 mmHg 14%
    01:00 +33°C° 0 mm 1 mps 726 mmHg 15%
    02:00 +33°C° 0 mm 1 mps 726 mmHg 16%
    03:00 +32°C° 0 mm 1 mps 726 mmHg 16%
    04:00 +31°C° 0 mm 1 mps 727 mmHg 17%
    05:00 +30°C° 0 mm 1 mps 727 mmHg 18%
    06:00 +32°C° 0 mm 2 mps 728 mmHg 16%
    07:00 +35°C° 0 mm 2 mps 728 mmHg 13%
    08:00 +37°C° 0 mm 2 mps 729 mmHg 11%
    09:00 +39°C° 0 mm 3 mps 729 mmHg 10%
    10:00 +42°C° 0 mm 3 mps 729 mmHg 9%
    11:00 +44°C° 0 mm 3 mps 729 mmHg 8%
    12:00 +45°C° 0 mm 2 mps 728 mmHg 8%
    13:00 +45°C° 0 mm 2 mps 727 mmHg 8%
    14:00 +46°C° 0 mm 2 mps 726 mmHg 8%
    15:00 +46°C° 0 mm 2 mps 726 mmHg 8%
    16:00 +45°C° 0 mm 2 mps 726 mmHg 9%
    17:00 +45°C° 0 mm 2 mps 726 mmHg 9%
    18:00 +42°C° 0 mm 1 mps 727 mmHg 10%
    19:00 +40°C° 0 mm 1 mps 727 mmHg 11%
    20:00 +37°C° 0 mm 1 mps 728 mmHg 12%
    21:00 +37°C° 0 mm 1 mps 728 mmHg 12%
    22:00 +36°C° 0 mm 1 mps 728 mmHg 13%
    23:00 +35°C° 0 mm 1 mps 728 mmHg 13%

    25 April, Thursday

    Time Temperature Precipitation Wind Pressure Humidity
    00:00 +34°C° 0 mm 1 mps 727 mmHg 14%
    01:00 +34°C° 0 mm 1 mps 727 mmHg 14%
    02:00 +34°C° 0 mm 2 mps 727 mmHg 14%
    03:00 +32°C° 0 mm 2 mps 727 mmHg 15%
    04:00 +31°C° 0 mm 2 mps 728 mmHg 15%
    05:00 +31°C° 0 mm 2 mps 728 mmHg 15%
    06:00 +34°C° 0 mm 2 mps 729 mmHg 16%
    07:00 +36°C° 0 mm 3 mps 729 mmHg 16%
    08:00 +38°C° 0 mm 3 mps 730 mmHg 17%
    09:00 +40°C° 0 mm 4 mps 730 mmHg 18%
    10:00 +42°C° 0 mm 4 mps 729 mmHg 18%
    11:00 +44°C° 0 mm 4 mps 729 mmHg 19%
    12:00 +44°C° 0 mm 4 mps 728 mmHg 18%
    13:00 +45°C° 0 mm 4 mps 728 mmHg 17%
    14:00 +45°C° 0 mm 4 mps 727 mmHg 16%
    15:00 +45°C° 0 mm 3 mps 727 mmHg 16%
    16:00 +45°C° 0 mm 2 mps 727 mmHg 16%
    17:00 +43°C° 0 mm 2 mps 727 mmHg 16%
    18:00 +42°C° 0 mm 2 mps 727 mmHg 19%
    19:00 +41°C° 0 mm 2 mps 728 mmHg 22%
    20:00 +39°C° 0 mm 2 mps 729 mmHg 25%
    21:00 +39°C° 0 mm 3 mps 729 mmHg 30%
    22:00 +38°C° 0 mm 3 mps 729 mmHg 35%
    23:00 +37°C° 0 mm 4 mps 729 mmHg 41%

    26 April, Friday

    Time Temperature Precipitation Wind Pressure Humidity
    00:00 +37°C° 0 mm 3 mps 728 mmHg 41%
    01:00 +36°C° 0 mm 3 mps 728 mmHg 41%
    02:00 +35°C° 0 mm 2 mps 727 mmHg 41%
    03:00 +35°C° 0 mm 2 mps 727 mmHg 41%
    04:00 +34°C° 0 mm 2 mps 728 mmHg 40%
    05:00 +34°C° 0 mm 2 mps 728 mmHg 40%
    06:00 +35°C° 0 mm 2 mps 728 mmHg 37%
    07:00 +37°C° 0 mm 3 mps 729 mmHg 33%
    08:00 +38°C° 0 mm 4 mps 729 mmHg 30%
    09:00 +40°C° 0 mm 3 mps 729 mmHg 28%
    10:00 +42°C° 0 mm 3 mps 729 mmHg 26%
    11:00 +43°C° 0 mm 2 mps 728 mmHg 24%
    12:00 +45°C° 0 mm 2 mps 727 mmHg 22%
    13:00 +45°C° 0 mm 2 mps 727 mmHg 20%
    14:00 +46°C° 0 mm 2 mps 726 mmHg 18%
    15:00 +46°C° 0 mm 2 mps 726 mmHg 18%
    16:00 +45°C° 0 mm 2 mps 726 mmHg 18%
    17:00 +45°C° 0 mm 2 mps 726 mmHg 18%
    18:00 +43°C° 0 mm 2 mps 726 mmHg 20%
    19:00 +42°C° 0 mm 2 mps 727 mmHg 21%
    20:00 +41°C° 0 mm 2 mps 728 mmHg 23%
    21:00 +40°C° 0.5 mm 2 mps 727 mmHg 25%
    22:00 +39°C° 0.5 mm 2 mps 727 mmHg 27%
    23:00 +38°C° 0.5 mm 2 mps 727 mmHg 30%
    Show more